TimeCST,TemperatureF,Dew PointF,Humidity,Sea Level PressureIn,VisibilityMPH,Wind Direction,Wind SpeedMPH,Gust SpeedMPH,PrecipitationIn,Events,Conditions,WindDirDegrees,DateUTC
12:16 AM,21.6,14.5,74,29.95,7.0,West,11.5,17.3,N/A,Snow,Light Snow,260,2012-11-12 06:16:00
12:55 AM,20.8,12.2,69,29.95,10.0,WSW,11.5,18.4,N/A,,Overcast,250,2012-11-12 06:55:00
1:15 AM,19.8,11.7,71,29.95,10.0,WSW,13.8,21.9,N/A,,Mostly Cloudy,250,2012-11-12 07:15:00
1:35 AM,19.4,12.0,73,29.94,10.0,WSW,10.4,-,N/A,,Clear,250,2012-11-12 07:35:00
1:55 AM,19.0,12.4,75,29.95,10.0,WSW,9.2,16.1,N/A,,Clear,240,2012-11-12 07:55:00
2:16 AM,18.9,12.7,77,29.95,10.0,WSW,9.2,-,N/A,,Clear,240,2012-11-12 08:16:00
2:35 AM,18.9,12.9,78,29.95,10.0,WSW,8.1,-,N/A,,Clear,240,2012-11-12 08:35:00
2:55 AM,18.5,13.1,79,29.94,10.0,WSW,6.9,-,N/A,,Clear,240,2012-11-12 08:55:00
3:16 AM,18.7,13.6,81,29.94,10.0,WSW,8.1,-,N/A,,Clear,240,2012-11-12 09:16:00
3:36 AM,19.0,14.0,81,29.94,10.0,WSW,9.2,-,N/A,,Clear,240,2012-11-12 09:36:00
3:55 AM,19.2,14.0,80,29.94,10.0,WSW,9.2,-,N/A,,Mostly Cloudy,240,2012-11-12 09:55:00
4:15 AM,19.4,14.4,81,29.93,10.0,SW,10.4,16.1,N/A,,Scattered Clouds,230,2012-11-12 10:15:00
4:35 AM,19.4,14.5,81,29.94,10.0,SW,11.5,17.3,N/A,,Scattered Clouds,230,2012-11-12 10:35:00
4:56 AM,19.9,14.9,81,29.94,10.0,SW,10.4,-,N/A,,Overcast,230,2012-11-12 10:56:00
5:15 AM,20.1,16.2,85,29.95,5.0,SW,6.9,-,N/A,Snow,Light Snow,230,2012-11-12 11:15:00
5:36 AM,20.3,16.7,86,29.95,3.0,WSW,10.4,16.1,N/A,Snow,Light Snow,240,2012-11-12 11:36:00
5:56 AM,20.3,17.1,87,29.94,5.0,WSW,11.5,18.4,N/A,Snow,Light Snow,240,2012-11-12 11:56:00
6:15 AM,20.8,17.6,87,29.94,5.0,WSW,10.4,17.3,N/A,Snow,Light Snow,240,2012-11-12 12:15:00
6:36 AM,21.0,17.8,87,29.95,3.0,WSW,10.4,-,N/A,Snow,Light Snow,250,2012-11-12 12:36:00
6:55 AM,21.0,16.9,84,29.95,7.0,WSW,13.8,18.4,N/A,,Scattered Clouds,250,2012-11-12 12:55:00
7:16 AM,21.0,17.6,87,29.96,1.8,West,11.5,20.7,N/A,Snow,Light Snow,270,2012-11-12 13:16:00
7:35 AM,20.1,16.9,87,29.97,2.0,West,11.5,-,N/A,Snow,Light Snow,270,2012-11-12 13:35:00
7:55 AM,20.1,15.6,83,29.98,3.0,West,17.3,21.9,N/A,Snow,Light Snow,270,2012-11-12 13:55:00
8:15 AM,20.1,16.0,84,29.99,5.0,West,11.5,20.7,N/A,Snow,Light Snow,270,2012-11-12 14:15:00
8:36 AM,20.3,14.9,80,29.99,10.0,West,12.7,16.1,N/A,,Mostly Cloudy,280,2012-11-12 14:36:00
8:55 AM,21.2,15.6,79,30.00,10.0,West,18.4,21.9,N/A,,Scattered Clouds,270,2012-11-12 14:55:00
9:15 AM,21.2,15.1,77,30.00,10.0,West,13.8,21.9,N/A,,Scattered Clouds,270,2012-11-12 15:15:00
9:36 AM,22.3,16.0,77,30.01,10.0,West,16.1,20.7,N/A,,Scattered Clouds,260,2012-11-12 15:36:00
9:55 AM,22.5,15.6,75,30.02,10.0,West,18.4,25.3,N/A,,Scattered Clouds,270,2012-11-12 15:55:00
10:16 AM,22.5,14.9,73,30.03,10.0,West,18.4,26.5,N/A,,Mostly Cloudy,260,2012-11-12 16:16:00
10:35 AM,21.4,13.8,73,30.04,10.0,West,18.4,26.5,N/A,,Overcast,260,2012-11-12 16:35:00
10:55 AM,22.3,14.9,73,30.04,10.0,West,15.0,24.2,N/A,,Overcast,260,2012-11-12 16:55:00
11:16 AM,22.3,14.0,71,30.05,10.0,West,15.0,25.3,N/A,,Mostly Cloudy,270,2012-11-12 17:16:00
11:35 AM,21.9,14.4,73,30.05,10.0,West,17.3,26.5,N/A,,Overcast,270,2012-11-12 17:35:00
11:55 AM,22.6,15.4,74,30.05,10.0,West,19.6,26.5,N/A,,Overcast,270,2012-11-12 17:55:00
12:16 PM,22.5,15.1,73,30.06,10.0,West,20.7,27.6,N/A,,Overcast,260,2012-11-12 18:16:00
12:36 PM,23.0,14.9,71,30.06,10.0,West,16.1,31.1,N/A,,Mostly Cloudy,260,2012-11-12 18:36:00
12:55 PM,23.2,15.4,72,30.07,10.0,West,20.7,24.2,N/A,,Mostly Cloudy,280,2012-11-12 18:55:00
1:16 PM,23.2,15.4,72,30.07,10.0,West,19.6,26.5,N/A,,Mostly Cloudy,270,2012-11-12 19:16:00
1:35 PM,23.9,15.8,71,30.08,10.0,West,20.7,26.5,N/A,,Mostly Cloudy,260,2012-11-12 19:35:00
1:55 PM,23.0,15.4,73,30.08,10.0,West,20.7,27.6,N/A,,Scattered Clouds,270,2012-11-12 19:55:00
2:16 PM,24.4,16.5,72,30.09,10.0,West,17.3,26.5,N/A,,Mostly Cloudy,270,2012-11-12 20:16:00
2:35 PM,24.8,16.2,70,30.09,10.0,West,18.4,24.2,N/A,,Scattered Clouds,270,2012-11-12 20:35:00
2:56 PM,24.8,16.3,70,30.11,10.0,West,19.6,27.6,N/A,,Scattered Clouds,270,2012-11-12 20:56:00
3:15 PM,25.7,16.7,69,30.11,10.0,West,13.8,25.3,N/A,,Scattered Clouds,260,2012-11-12 21:15:00
3:36 PM,25.0,16.5,70,30.12,10.0,West,17.3,24.2,N/A,,Scattered Clouds,270,2012-11-12 21:36:00
3:55 PM,24.4,16.3,71,30.14,10.0,West,18.4,27.6,N/A,,Scattered Clouds,270,2012-11-12 21:55:00
4:36 PM,24.3,16.7,73,30.15,10.0,West,16.1,19.6,N/A,,Scattered Clouds,270,2012-11-12 22:36:00
4:55 PM,23.9,16.3,73,30.16,10.0,West,12.7,18.4,N/A,,Scattered Clouds,270,2012-11-12 22:55:00
5:16 PM,23.5,16.2,73,30.17,10.0,West,11.5,-,N/A,,Clear,270,2012-11-12 23:16:00
5:35 PM,23.2,16.5,76,30.17,10.0,West,10.4,17.3,N/A,,Clear,270,2012-11-12 23:35:00
5:56 PM,23.0,16.5,76,30.18,10.0,West,9.2,-,N/A,,Clear,270,2012-11-12 23:56:00
6:16 PM,22.8,16.7,77,30.19,10.0,West,6.9,-,N/A,,Clear,260,2012-11-13 00:16:00
6:35 PM,22.3,16.7,79,30.20,10.0,West,5.8,-,N/A,,Clear,260,2012-11-13 00:35:00
6:56 PM,21.9,16.9,81,30.21,10.0,West,6.9,-,N/A,,Clear,260,2012-11-13 00:56:00
7:16 PM,21.6,16.9,82,30.21,10.0,West,6.9,-,N/A,,Clear,260,2012-11-13 01:16:00
7:35 PM,21.9,16.7,80,30.22,10.0,West,8.1,-,N/A,,Clear,270,2012-11-13 01:35:00
7:56 PM,21.9,16.7,80,30.22,10.0,West,9.2,-,N/A,,Clear,260,2012-11-13 01:56:00
8:35 PM,21.2,16.7,83,30.24,10.0,West,5.8,-,N/A,,Clear,270,2012-11-13 02:35:00
8:56 PM,20.8,16.5,83,30.24,10.0,West,3.5,-,N/A,,Clear,260,2012-11-13 02:56:00
9:15 PM,20.8,16.7,84,30.25,10.0,West,6.9,-,N/A,,Clear,270,2012-11-13 03:15:00
9:35 PM,20.8,16.5,83,30.26,10.0,West,5.8,-,N/A,,Clear,270,2012-11-13 03:35:00
9:56 PM,20.3,16.5,85,30.26,10.0,WSW,3.5,-,N/A,,Clear,250,2012-11-13 03:56:00
10:15 PM,19.6,15.8,85,30.27,10.0,Calm,Calm,-,N/A,,Clear,0,2012-11-13 04:15:00
10:35 PM,18.9,15.6,87,30.27,10.0,WSW,3.5,-,N/A,,Clear,240,2012-11-13 04:35:00
10:55 PM,19.0,15.3,85,30.27,10.0,West,3.5,-,N/A,,Clear,260,2012-11-13 04:55:00
11:16 PM,18.5,14.9,86,30.27,10.0,Calm,Calm,-,N/A,,Clear,0,2012-11-13 05:16:00
11:36 PM,18.5,14.9,86,30.28,10.0,Calm,Calm,-,N/A,,Clear,0,2012-11-13 05:36:00
11:56 PM,18.3,14.2,84,30.29,10.0,Calm,Calm,-,N/A,,Clear,0,2012-11-13 05:56:00